Other Public Products
Issued by NWS Grand Forks, ND

Home | Current Version | Previous Version | Text Only | Print | Product List | Glossary On
Versions: 1 2 3 4 5 6 7 8 9 10 11 12 13 14 15 16 17 18 19 20 21 22 23 24 25 26 27 28 29 30 31 32 33 34 35 36 37 38 39 40 41 42 43 44 45 46 47 48 49 50
000
FPUS83 KFGF 030710
OPUFGF
PRAIRIE TO PINES WEATHER ROUNDUP
NATIONAL WEATHER SERVICE EASTERN NORTH DAKOTA/GRAND FORKS ND
200 AM CDT FRI JUL 03 2015

 **SATELLITE DATA USED TO AUGMENT SKY COVER AT AUTOMATED STATIONS**
 *****  WEATHER ACROSS EASTERN NORTH DAKOTA  *****

CITY           SKY/WX    TMP DP  RH WIND       PRES   REMARKS
GRAND FORKS    CLOUDY    65  64  97 NW6       29.88F FOG
GRAND FORKS AF CLEAR     66  63  91 NW6       29.90S
GRAND CITY NWS   N/A     64 N/A N/A W1          N/A
BUXTON         NOT AVBL
DEVILS LAKE    CLEAR     64  61  88 NW7       29.92F
FARGO          CLEAR     64  58  80 S8        29.92F
WAHPETON ARPT  SUNNY     57  54  88 S6        29.95F
$$

 *****  WEATHER ACROSS CENTRAL AND WESTERN NORTH DAKOTA  *****

CITY           SKY/WX    TMP DP  RH WIND       PRES   REMARKS
JAMESTOWN      CLOUDY    65  61  87 CALM      29.94F FOG
BISMARCK       CLOUDY    66  63  90 CALM      29.99S FOG
MINOT          MOCLDY    64  60  87 SW3       29.97S FOG
MINOT AFB      CLEAR     63  63 100 NW6       29.96S
GARRISON         N/A     63  61  93 CALM      29.99S
WILLISTON      CLEAR     65  61  87 N5        30.02S
DICKINSON      CLEAR     61  57  87 CALM      30.03S FOG
HETTINGER      CLEAR     56  55  97 CALM      30.06F FOG
$$

 *****  OTHER OBSERVATIONS NORTHEAST NORTH DAKOTA  *****

CITY           SKY/WX    TMP DP  RH WIND       PRES   REMARKS
WALHALLA       FAIR      64  64 100 MISG      29.90F FOG
LANGDON        FOG       59  59 100 NW5       29.94S VSB 3/4
CAVALIER       FAIR      63  63 100 NW3       29.90S FOG
GRAFTON        FAIR      66  66 100 NW5       29.89F FOG
CANDO          FAIR      64  63  94 N7        29.95S FOG
FORT TOTTEN      N/A     63  63  99 CALM      29.95
ROLLA          CLOUDY    59  59 100 NW6       29.97F FOG
RUGBY          NOT AVBL
 ***** THE ABOVE OBSERVATIONS ARE NON NWS ARE NOT QUALITY
        CONTROLLED AND MAY MIS-REPORT RAIN FOR SNOW...
$$

 *****  OTHER OBSERVATIONS SOUTHEAST NORTH DAKOTA *****

CITY           SKY/WX    TMP DP  RH WIND       PRES   REMARKS
COOPERSTOWN    NOT AVBL
VALLEY CITY    FAIR      64  64 100 CALM      29.94F
OAKES            N/A     63  63 100 SW7       29.96S
GWINNER          N/A     64  63  94 SW10      29.96S
BUFFALO        NOT AVBL
WYNDMERE       NOT AVBL
 ***** THE ABOVE OBSERVATIONS ARE NON NWS ARE NOT QUALITY
       CONTROLLED AND MAY MIS-REPORT RAIN FOR SNOW...
$$

  *****  WEATHER ACROSS NORTHERN MINNESOTA  *****

CITY           SKY/WX    TMP DP  RH WIND       PRES   REMARKS
FLAG ISLAND    MOCLDY    66  64  94 W7        29.84S
WARROAD        PTCLDY    63  59  88 SW6       29.88S
ROSEAU         PTCLDY    64  59  82 SW5       29.87F
HALLOCK        FOG       63  63 100 NW6       29.88S VSB 3/4
THF RVR FALLS  MOCLDY    64  55  72 SW8       29.90S
HALSTAD        NOT AVBL
FOSSTON        CLEAR     59  54  82 S6        29.92F
BAUDETTE       CLOUDY    66  56  70 W8        29.86F
WASKISH        PTCLDY    68  59  73 SW13G18   29.89F
CROOKSTON      CLEAR     63  59  88 S3        29.90F
$$
  *****  WEATHER ACROSS CENTRAL AND WEST MINNESOTA  *****

CITY           SKY/WX    TMP DP  RH WIND       PRES   REMARKS
BEMIDJI        CLEAR     62  53  73 SW6       29.92S
PARK RAPIDS    MOCLDY    60  53  77 SW7       29.94F
WADENA         CLEAR     57  52  82 CALM      29.96F
DETROIT LAKES  CLEAR     64  54  68 SW6       29.95F
MOORHEAD       CLEAR     63  57  82 S6        29.94S
FERGUS FALLS   CLEAR     61  55  82 S6        29.96F
ELBOW LAKE     FAIR      58  55  88 S6        29.97S
MORRIS MN      CLEAR     57  54  88 CALM      29.96F
STAPLES        CLEAR     55  50  82 CALM      29.97S
WHEATON        CLEAR     55  54  94 S6        29.98S
$$
  *****  WEATHER ELSEWHERE ACROSS MINNESOTA  *****

CITY           SKY/WX    TMP DP  RH WIND       PRES   REMARKS
DULUTH         PTCLDY    63  55  75 W8        29.94S
INTRNTL FALLS  CLOUDY    65  56  72 W6        29.86S
ELY            MOCLDY    64  55  72 SW5       29.89F
CLOQUET        CLEAR     61  54  77 W5        29.95S
BRAINERD       CLEAR     54  53  97 CALM      29.96F
HIBBING        CLOUDY    62  56  80 CALM      29.92F
ALEXANDRIA     CLEAR     58  51  78 SW7       29.99S
SAINT CLOUD    CLEAR     56  54  93 CALM      29.97F
MINNEAPOLIS    CLEAR     65  56  72 S3        29.98S
$$

  *****  WEATHER ACROSS SOUTH DAKOTA  *****

CITY           SKY/WX    TMP DP  RH WIND       PRES   REMARKS
SIOUX FALLS    FOG       56  55  97 CALM      30.02R VSB 1/4
BROOKINGS      CLEAR     55  52  88 CALM      30.03S
WATERTOWN      CLEAR     58  54  86 SW9       29.99F
HURON          CLEAR     60  58  92 S5        29.99F
SISSETON         N/A     56  53  90 S3        29.95F
ABERDEEN       PTCLDY    62  61  96 SW6       29.97F FOG
MITCHELL       CLEAR     59  57  93 E3        30.01S
PIERRE         CLEAR     62  61  96 CALM      29.99S FOG
MOBRIDGE       CLEAR     66  65  96 N5        29.97S FOG
RAPID CITY     CLEAR     60  57  89 NW6       30.10S
$$

  *****  SOME WEATHER IN NEARBY STATES *****

CITY           SKY/WX    TMP DP  RH WIND       PRES   REMARKS
GLASGOW MT     CLEAR     61  54  77 E8        30.02F HAZE
GREAT FALLS MT CLEAR     70  48  45 SE8       30.03F
CHEYENNE WY    CLOUDY    64  54  69 CALM      30.24F
SCOTTSBLUFF NE PTCLDY    65  61  87 NE5       30.13F
OMAHA NE       MOCLDY    63  54  72 CALM      29.99S
DES MOINES IA  MOCLDY    63  55  75 CALM      29.99S
DAVENPORT IA   CLOUDY    60  56  86 NE5       29.98F
CHICAGO IL     CLOUDY    56  48  74 N5        29.98F
EAU CLAIRE WI  CLEAR     57  55  93 CALM      29.98S
LA CROSSE WI   PTCLDY    58  55  90 SE5       29.99F
$$

  *****  SOME NATIONAL WEATHER *****

CITY           SKY/WX    TMP DP  RH WIND       PRES   REMARKS
LA GUARDIA NY  PTCLDY    69  59  70 N7        29.89S
RALEIGH NC     MOCLDY    72  69  90 CALM      29.91F FOG
ATLANTA GA     PTCLDY    75  71  87 SW8       29.96F
NEW ORLEANS LA CLOUDY    80  74  81 S6        30.04S
OKLAHOMA CITY  TSTM      68  68 100 E18G26    29.95S FOG
ALBUQUERQUE NM CLOUDY    70  58  65 N8        30.19F
SALT LAKE CITY PTCLDY    79  50  36 S6        29.98R
LOS ANGELES CA MOCLDY    63  61  93 W7        29.95S
BOISE ID       CLEAR     80  46  30 S3        29.89R
SEATTLE WA     PTCLDY    77  51  40 N5        29.95S
$$

*** WEATHER ACROSS MANITOBA...SASKATCHEWAN AND ONTARIO ***
                ***ONTARIO***

CITY           SKY/WX    TMP DP  RH WIND       PRES   REMARKS
GERALDTON      FOG       57  57 100 SW9       29.78F VSB 1/2
THUNDER BAY    TSTM      57  55  94 N14       29.86S
SIOUX LOOKOUT  NOT AVBL
TORONTO        CLEAR     55  41  58 N9        29.99F
BIG TROUT LK   LGT RAIN  59  59 100 N3        29.68S FOG
PICKLE LAKE    NOT AVBL
DRYDEN         CLOUDY    66  61  82 W10       29.81F
KENORA         PTCLDY    66  64  94 W6        29.85S
$$
                *** MANITOBA***

CITY           SKY/WX    TMP DP  RH WIND       PRES   REMARKS
BRANDON        CLEAR     57  57 100 NW8       29.94F SMOKE
DAUPHIN        CLEAR     63  59  88 W7        29.93S FOG
ISLAND LAKE    CLEAR     63  59  88 NW8       29.83R
PILOT MOUND      N/A     59  57  94 NW6         N/A
THE PAS        CLOUDY    59  54  82 CALM      29.89R SMOKE
THOMPSON       CLEAR     54  50  87 NE2       29.86S
WINNIPEG       MOCLDY    61  61 100 W7        29.88S SMOKE
LYNN LAKE      CLOUDY    59  52  77 SW3       29.87S
CHURCHILL      MOCLDY    57  48  72 NW5       29.83R
$$
                ***SASKATCHEWAN***

CITY           SKY/WX    TMP DP  RH WIND       PRES   REMARKS
ESTEVAN        CLOUDY    59  59 100 W6        30.01R SMOKE
KINDERSLEY     PTCLDY    61  57  88 S8        29.98S
LLOYDMINSTER   CLEAR     64  54  68 S10       29.94S
PRINCE ALBERT  MOCLDY    59  57  94 CALM      29.93S
REGINA         PTCLDY    61  59  94 E5        30.00F SMOKE
YORKTON        FOG       63  61  94 W3        29.96F VSB 1
N. BATTLEFORD  CLEAR     61  55  82 SE5       29.97S



USA.gov is the U.S. government's official web portal to all federal, state and local government web resources and services.